Weather History for Conway, SC

Change the Weather History Date:

Friday, September 20, 2013

  Actual Average Record
Temperature  
Mean Temperature 68 °F -  
Max Temperature 80 °F 84 °F 93 °F (2010)
Min Temperature 57 °F 65 °F 57 °F (2013)
Cooling Degree Days 4    
Growing Degree Days 18 (Base 50)    
Moisture  
Dew Point 62 °F    
Average Humidity 82    
Maximum Humidity 100    
Minimum Humidity 54    
Precipitation  
Precipitation 0.00 in - - ()
Sea Level Pressure  
Sea Level Pressure 30.05 in    
Wind  
Wind Speed 1 mph (SE)    
Max Wind Speed 8 mph    
Max Gust Speed -    
Visibility 7 miles    
Events      
Averages and records for this station are not official NWS values.
T = Trace of Precipitation, MM = Missing Value Source: NWS Daily Summary

Daily Weather History Graph

Daily Weather History Graph

Search for Another Location

Airport:

Trip Planner

Search our weather history database for the weather conditions in past years. The results will help you decide how hot, cold, wet, or windy it might be!

Date:

Astronomy

Sep. 20, 2013 Rise Set
Actual Time 7:03 AM EDT 7:15 PM EDT
Civil Twilight 6:38 AM EDT 7:40 PM EDT
Nautical Twilight 6:09 AM EDT 8:09 PM EDT
Astronomical Twilight 5:39 AM EDT 8:39 PM EDT
Moon 7:55 PM EDT (9/20) 8:10 AM EDT (9/20)
Length of Visible Light 13h 02m
Length of Day
12h 12m
Full, 98% of the Moon is Illuminated
Sep 20
Full
Sep 26
Last Quarter
Oct 4
New
Oct 11
First Quarter
Oct 18
Full

Hourly Weather History & Observations

Time (EDT) Temp. Heat Index Dew Point Humidity Pressure Visibility Wind Dir Wind Speed Gust Speed Precip Events Conditions
12:35 AM 60.8 °F - 60.8 °F 100% 30.09 in 7.0 mi Calm Calm - N/A   Clear
12:55 AM 60.8 °F - 60.8 °F 100% 30.09 in 7.0 mi Calm Calm - N/A   Clear
1:35 AM 60.8 °F - 60.8 °F 100% 30.09 in 7.0 mi Calm Calm - N/A   Clear
1:55 AM 60.8 °F - 60.8 °F 100% 30.09 in 7.0 mi Calm Calm - N/A   Clear
2:15 AM 59.0 °F - 59.0 °F 100% 30.09 in 7.0 mi Calm Calm - N/A   Clear
2:35 AM 59.0 °F - 59.0 °F 100% 30.09 in 7.0 mi Calm Calm - N/A   Clear
2:55 AM 59.0 °F - 59.0 °F 100% 30.09 in 7.0 mi Calm Calm - N/A   Clear
3:15 AM 59.0 °F - 59.0 °F 100% 30.09 in 7.0 mi Calm Calm - N/A   Clear
3:35 AM 59.0 °F - 59.0 °F 100% 30.09 in 5.0 mi Calm Calm - N/A   Clear
3:55 AM 59.0 °F - 59.0 °F 100% 30.09 in 7.0 mi Calm Calm - N/A   Clear
4:15 AM 59.0 °F - 59.0 °F 100% 30.09 in 7.0 mi Calm Calm - N/A   Mostly Cloudy
4:35 AM 59.0 °F - 59.0 °F 100% 30.09 in 7.0 mi Calm Calm - N/A   Scattered Clouds
4:55 AM 59.0 °F - 59.0 °F 100% 30.08 in 7.0 mi Calm Calm - N/A   Clear
5:15 AM 59.0 °F - 59.0 °F 100% 30.08 in 7.0 mi Calm Calm - N/A   Clear
5:35 AM 59.0 °F - 59.0 °F 100% 30.08 in 7.0 mi Calm Calm - N/A   Clear
5:55 AM 59.0 °F - 59.0 °F 100% 30.09 in 7.0 mi Calm Calm - N/A   Clear
6:15 AM 59.0 °F - 59.0 °F 100% 30.09 in 7.0 mi Calm Calm - N/A   Clear
6:35 AM 57.2 °F - 57.2 °F 100% 30.08 in 7.0 mi Calm Calm - N/A   Clear
6:55 AM 59.0 °F - 59.0 °F 100% 30.09 in 7.0 mi Calm Calm - N/A   Clear
7:15 AM 59.0 °F - 59.0 °F 100% 30.09 in 5.0 mi Calm Calm - N/A   Clear
7:35 AM 59.0 °F - 59.0 °F 100% 30.09 in 5.0 mi Calm Calm - N/A   Clear
7:55 AM 59.0 °F - 59.0 °F 100% 30.09 in 7.0 mi Calm Calm - N/A   Clear
8:15 AM 62.6 °F - 62.6 °F 100% 30.09 in 7.0 mi Calm Calm - N/A   Clear
8:35 AM 64.4 °F - 64.4 °F 100% 30.10 in 5.0 mi Calm Calm - N/A   Clear
8:55 AM 68.0 °F - 64.4 °F 88% 30.10 in 5.0 mi Calm Calm - N/A   Scattered Clouds
9:15 AM 69.8 °F - 64.4 °F 83% 30.10 in 7.0 mi Calm Calm - N/A   Clear
9:35 AM 73.4 °F - 62.6 °F 69% 30.09 in 7.0 mi Calm Calm - N/A   Scattered Clouds
9:55 AM 73.4 °F - 62.6 °F 69% 30.09 in 7.0 mi SSW 4.6 mph - N/A   Mostly Cloudy
10:15 AM 77.0 °F - 64.4 °F 65% 30.10 in 7.0 mi WSW 5.8 mph - N/A   Scattered Clouds
10:35 AM 77.0 °F - 64.4 °F 65% 30.09 in 7.0 mi SW 3.5 mph - N/A   Mostly Cloudy
11:15 AM 77.0 °F - 64.4 °F 65% 30.09 in 7.0 mi Calm Calm - N/A   Mostly Cloudy
11:35 AM 77.0 °F - 64.4 °F 65% 30.09 in 7.0 mi Calm Calm - N/A   Overcast
12:15 PM 77.0 °F - 64.4 °F 65% 30.08 in 7.0 mi Calm Calm - N/A   Overcast
12:35 PM 77.0 °F - 64.4 °F 65% 30.07 in 7.0 mi Calm Calm - N/A   Overcast
12:55 PM 78.8 °F - 64.4 °F 61% 30.07 in 7.0 mi East 3.5 mph - N/A   Overcast
1:15 PM 78.8 °F - 64.4 °F 61% 30.06 in 5.0 mi Calm Calm - N/A   Haze
1:35 PM 80.6 °F 82.3 °F 64.4 °F 58% 30.05 in 7.0 mi Calm Calm - N/A   Scattered Clouds
1:55 PM 78.8 °F - 64.4 °F 61% 30.04 in 7.0 mi East 5.8 mph - N/A   Mostly Cloudy
2:15 PM 80.6 °F 81.8 °F 62.6 °F 54% 30.04 in 5.0 mi East 3.5 mph - N/A   Haze
2:35 PM 78.8 °F - 62.6 °F 57% 30.02 in 7.0 mi Calm Calm - N/A   Scattered Clouds
2:55 PM 80.6 °F 82.3 °F 64.4 °F 58% 30.02 in 7.0 mi SE 3.5 mph - N/A   Clear
3:15 PM 80.6 °F 82.3 °F 64.4 °F 58% 30.00 in 7.0 mi Calm Calm - N/A   Clear
3:35 PM 80.6 °F 82.3 °F 64.4 °F 58% 30.00 in 7.0 mi East 3.5 mph - N/A   Clear
3:55 PM 80.6 °F 82.3 °F 64.4 °F 58% 29.99 in 7.0 mi ESE 5.8 mph - N/A   Scattered Clouds
4:35 PM 78.8 °F - 62.6 °F 57% 29.99 in 7.0 mi ESE 5.8 mph - N/A   Clear
4:55 PM 80.6 °F 81.8 °F 62.6 °F 54% 29.99 in 5.0 mi SE 4.6 mph - N/A   Haze
5:15 PM 80.6 °F 81.8 °F 62.6 °F 54% 29.99 in 7.0 mi SE 8.1 mph - N/A   Clear
5:35 PM 78.8 °F - 60.8 °F 54% 29.98 in 5.0 mi ESE 6.9 mph - N/A   Haze
5:55 PM 78.8 °F - 62.6 °F 57% 29.98 in 7.0 mi SE 4.6 mph - N/A   Clear
6:15 PM 77.0 °F - 62.6 °F 61% 29.98 in 5.0 mi SE 4.6 mph - N/A   Haze
6:55 PM 75.2 °F - 62.6 °F 65% 29.98 in 7.0 mi SSE 3.5 mph - N/A   Clear
7:15 PM 73.4 °F - 62.6 °F 69% 29.98 in 7.0 mi Calm Calm - N/A   Clear
7:55 PM 69.8 °F - 62.6 °F 78% 29.98 in 7.0 mi Calm Calm - N/A   Mostly Cloudy
8:15 PM 69.8 °F - 64.4 °F 83% 29.98 in 7.0 mi Calm Calm - N/A   Mostly Cloudy
8:35 PM 69.8 °F - 64.4 °F 83% 29.99 in 7.0 mi Calm Calm - N/A   Mostly Cloudy
8:55 PM 69.8 °F - 64.4 °F 83% 29.99 in 7.0 mi Calm Calm - N/A   Scattered Clouds
9:15 PM 69.8 °F - 64.4 °F 83% 29.99 in 10.0 mi Calm Calm - N/A   Clear
9:35 PM 69.8 °F - 64.4 °F 83% 29.99 in 7.0 mi Calm Calm - N/A   Clear
9:55 PM 69.8 °F - 66.2 °F 88% 29.99 in 10.0 mi Calm Calm - N/A   Mostly Cloudy
10:15 PM 69.8 °F - 68.0 °F 94% 29.99 in 7.0 mi Calm Calm - N/A   Scattered Clouds
10:35 PM 68.0 °F - 68.0 °F 100% 29.98 in 7.0 mi Calm Calm - N/A   Clear
10:55 PM 66.2 °F - 66.2 °F 100% 29.98 in 7.0 mi Calm Calm - N/A   Clear
11:15 PM 66.2 °F - 66.2 °F 100% 29.97 in 7.0 mi Calm Calm - N/A   Clear
11:35 PM 66.2 °F - 66.2 °F 100% 29.97 in 7.0 mi Calm Calm - N/A   Clear